Regional Weather Roundup
Issued by NWS

Home | Current Version | Previous Version | Graphics & Text | Print | Product List | Glossary On
Versions: 1 2 3 4 5 6 7 8 9 10 11 12 13 14 15 16 17 18 19 20 21 22 23 24 25 26 27 28 29 30 31 32 33 34 35 36 37 38 39 40 41 42 43 44 45 46 47 48 49 50
000
ASUS43 KFSD 021102
RWRSD

WEATHER ROUNDUP FOR SOUTH DAKOTA
NATIONAL WEATHER SERVICE SIOUX FALLS SD
600 AM CDT WED SEP 02 2015

NOTE: "FAIR" INDICATES FEW OR NO CLOUDS BELOW 12,000 FEET WITH NO
SIGNIFICANT WEATHER AND/OR OBSTRUCTIONS TO VISIBILITY.


SDZ001>005-009-010-012>017-021200-
NORTHWEST AND NORTH CENTRAL SOUTH DAKOTA

CITY           SKY/WX    TMP DP  RH WIND       PRES   REMARKS
BUFFALO          N/A     63  54  72 S5        29.76F
FAITH            N/A     63  54  72 NE3       29.81S
MOBRIDGE       CLEAR     65  65 100 E6        29.77S FOG
$$

SDZ012>016-024>037-041>051-057-063-072>074-021200-
SOUTHWEST AND SOUTH CENTRAL SOUTH DAKOTA

CITY           SKY/WX    TMP DP  RH WIND       PRES   REMARKS
RAPID CTY ARPT PTCLDY    60  47  61 NW5       29.85S
PIERRE         FOG       58  58 100 CALM      29.76F VSB 1/4
CUSTER         MOCLDY    64  37  36 W6        30.03S
ELLSWORTH AFB  MOCLDY    63  48  58 SW6       29.84S
PHILIP         CLEAR     55  53  93 W5        29.79S
PINE RIDGE     PTCLDY    60  46  59 W6        29.88S
WINNER         FAIR      69  60  73 E3        29.80F
$$

SDZ004>011-016>023-039-040-021200-
NORTHEAST SOUTH DAKOTA

CITY           SKY/WX    TMP DP  RH WIND       PRES   REMARKS
ABERDEEN       CLEAR     64  62  93 E3        29.79F
WATERTOWN      CLEAR     65  62  90 SE6       29.84F
BROOKINGS      CLEAR     64  61  88 SE9       29.87S
$$

SDZ017-020-022-023-036>040-048>070-021200-
SOUTHEAST SOUTH DAKOTA

CITY           SKY/WX    TMP DP  RH WIND       PRES   REMARKS
SIOUX FALLS    CLEAR     68  65  90 E7        29.86R
HURON          CLEAR     68  66  93 SE9       29.78F
CHAMBERLAIN    CLEAR     63  62  97 CALM      29.79R
MITCHELL       CLEAR     68  66  93 SE7       29.80F
YANKTON        CLEAR     66  64  94 E6        29.82S
$$

ABBREVIATIONS USED IN REMARKS
   TC - TEMPERATURE IN CELSIUS
  WCI - WIND CHILL INDEX
   HX - HEAT INDEX
  VSB - VISIBILITY




USA.gov is the U.S. government's official web portal to all federal, state and local government web resources and services.